Temp
22 22 21 21 22 22 21 21 21 21 21 21 21 21 21 21 21 21 21 21 20 20 20 20 20 20 20 20 19 19 19 19 19 19 19 19 19 19 19 19 19 19
22 22 22 22 22 22 22 21 21 21 21 21 21 21 21 21 21 21 21 21 21 20 20 20 20 20 20 20 20 19 19 19 19 19 19 19 19 19 19 19 19 19
22 22 22 22 22 22 22 22 21 21 21 21 21 21 21 21 21 21 21 21 21 21 21 20 20 20 20 20 20 20 20 19 19 19 19 19 19 20 20 19 20 20
22 22 23 22 22 22 22 22 22 22 21 21 21 21 21 21 21 21 21 21 21 21 21 21 20 20 20 20 20 20 20 20 20 19 19 19 20 20 20 20 20 20
22 22 23 23 23 22 22 22 22 22 22 22 22 22 22 22 22 21 21 21 21 21 21 21 21 20 20 20 20 20 20 20 20 20 20 20 20 20 20 20 20 20
22 22 22 23 23 23 22 22 22 22 22 22 22 22 22 22 22 22 22 21 21 21 21 21 21 21 21 21 21 21 21 21 21 20 20 20 20 20 20 20 20 20
22 22 22 22 22 23 23 23 22 22 22 22 22 22 22 22 22 22 22 22 21 21 21 22 21 21 21 21 21 21 21 21 21 21 21 21 20 20 20 20 20 20
23 22 22 22 22 23 23 23 23 23 22 22 22 22 22 22 22 22 22 22 22 22 22 22 22 22 22 22 22 22 22 22 22 21 21 21 21 21 21 21 21 21
23 23 23 22 22 22 23 23 23 23 23 23 23 23 23 23 22 22 22 22 22 22 22 22 22 22 22 22 22 22 22 22 22 22 22 22 21 21 21 21 21 21
23 23 23 23 22 22 22 23 23 23 23 23 23 23 23 23 23 22 22 22 22 22 22 22 22 22 22 22 22 22 22 22 22 22 22 22 22 21 21 21 21 21
23 23 23 23 23 23 23 22 22 23 23 23 23 23 23 23 23 23 22 22 22 22 22 22 22 22 22 22 22 22 22 22 22 22 22 22 22 22 22 21 21 21
23 23 23 23 23 23 23 23 22 22 22 23 22 22 23 23 23 23 23 23 23 23 23 22 22 22 22 22 22 22 22 22 22 22 22 22 22 22 22 22 22 22
23 23 23 23 23 23 23 23 23 23 22 22 22 22 22 22 22 23 23 23 23 23 23 23 23 23 23 23 22 22 22 22 22 22 22 22 22 22 22 22 22 22
24 23 23 23 23 23 23 23 23 23 23 22 22 22 22 22 22 22 23 23 23 23 23 23 23 23 23 23 23 23 23 23 22 22 22 22 22 22 22 22 22 22
23 23 23 23 23 23 23 23 23 23 23 23 23 22 22 22 22 22 22 22 22 23 23 23 23 23 23 23 23 23 23 23 23 23 23 23 23 22 22 22 23 22
23 23 23 23 23 23 23 23 23 23 23 23 23 23 22 22 22 22 22 22 22 22 23 23 23 24 24 24 23 23 23 23 23 23 23 23 23 22 22 22 23 23
23 23 23 23 23 23 23 23 23 23 23 23 23 23 22 22 22 22 22 21 21 22 22 22 23 24 24 24 24 23 23 23 23 23 23 23 22 23 22 22 23 23
23 23 23 23 23 23 23 23 23 23 23 23 23 23 23 22 22 22 22 22 21 21 21 22 23 24 24 24 24 24 23 23 23 23 23 22 22 22 23 23 23 23
22 22 22 23 23 23 23 23 23 23 23 23 23 23 23 22 22 22 22 22 21 21 21 21 22 23 24 24 24 24 23 23 23 22 22 22 22 22 23 23 23 23
22 22 22 23 23 23 23 23 23 23 23 23 23 23 23 22 22 22 22 22 22 21 21 21 21 22 23 23 24 24 24 23 23 22 22 22 22 22 22 22 23 23
22 22 22 22 22 22 22 22 22 23 23 23 23 23 23 23 23 22 22 22 22 22 22 21 21 22 22 22 23 23 23 23 22 22 22 22 22 22 22 22 23 23
21 22 22 22 22 22 22 22 22 22 23 22 22 22 22 22 22 22 22 22 22 22 22 22 22 22 22 22 22 22 22 22 22 22 22 22 22 22 22 22 23 23
21 21 21 22 22 22 22 22 22 22 22 22 22 22 22 22 22 22 22 22 22 22 22 22 22 22 22 22 22 22 21 21 22 22 22 22 22 22 23 23 23 23
20 21 21 21 21 21 22 22 22 22 22 22 22 22 22 22 22 22 22 22 22 22 22 22 23 23 22 22 22 22 21 21 21 21 22 22 22 22 23 23 23 23
20 20 20 21 21 21 21 21 22 22 22 22 22 22 22 22 21 21 22 22 22 22 22 22 22 22 22 23 23 22 22 21 21 21 21 22 22 23 23 23 23 23
19 19 20 20 20 21 21 21 21 21 21 21 21 21 21 21 21 21 21 22 22 22 22 22 22 22 22 22 22 22 22 22 21 21 21 22 23 23 23 23 23 23
Height
1581 1584 1586 1588 1590 1592 1593 1595 1597 1599 1600 1601 1602 1604 1605 1606 1607 1608 1609 1610 1611 1612 1613 1614 1614 1615 1615 1616 1616 1617 1617 1618 1618 1619 1619 1620 1620 1621 1621 1621 1622 1622
1579 1581 1584 1586 1588 1590 1592 1594 1596 1597 1599 1600 1602 1603 1604 1605 1606 1607 1608 1609 1610 1611 1612 1613 1613 1614 1615 1615 1616 1616 1617 1617 1618 1618 1619 1619 1619 1620 1620 1620 1621 1621
1577 1579 1581 1584 1586 1588 1590 1592 1594 1596 1597 1599 1600 1602 1603 1604 1605 1606 1607 1608 1609 1610 1611 1612 1613 1613 1614 1614 1615 1615 1616 1617 1617 1618 1618 1618 1619 1619 1619 1620 1620 1620
1574 1576 1579 1581 1584 1586 1588 1590 1592 1594 1595 1597 1599 1600 1602 1603 1604 1605 1606 1607 1608 1609 1610 1611 1611 1612 1613 1613 1614 1615 1615 1616 1616 1617 1617 1617 1618 1618 1618 1619 1619 1619
1571 1574 1576 1579 1581 1583 1586 1588 1590 1591 1593 1595 1597 1598 1600 1601 1602 1603 1605 1606 1607 1608 1609 1609 1610 1611 1612 1612 1613 1613 1614 1615 1615 1616 1616 1617 1617 1617 1618 1618 1618 1619
1569 1571 1574 1576 1578 1581 1583 1585 1587 1589 1591 1593 1595 1596 1598 1599 1601 1602 1603 1604 1605 1606 1607 1608 1609 1610 1610 1611 1611 1612 1613 1613 1614 1614 1615 1616 1616 1616 1617 1617 1617 1618
1567 1569 1571 1573 1576 1578 1580 1582 1585 1587 1589 1591 1592 1594 1596 1597 1599 1600 1601 1602 1604 1605 1606 1607 1608 1608 1609 1610 1610 1611 1611 1612 1613 1613 1614 1614 1615 1615 1616 1616 1616 1617
1564 1567 1569 1571 1573 1575 1577 1580 1582 1584 1586 1588 1590 1591 1593 1595 1596 1598 1599 1601 1602 1603 1604 1605 1606 1607 1607 1608 1608 1609 1610 1610 1611 1612 1612 1613 1614 1614 1615 1615 1615 1616
1562 1564 1566 1568 1570 1572 1574 1576 1579 1581 1583 1585 1587 1589 1591 1592 1594 1595 1597 1598 1599 1601 1602 1603 1604 1605 1605 1606 1607 1607 1608 1609 1609 1610 1610 1611 1612 1613 1613 1614 1614 1615
1558 1561 1563 1565 1567 1569 1571 1573 1576 1578 1580 1582 1584 1586 1587 1589 1591 1593 1594 1595 1597 1598 1599 1600 1601 1602 1603 1604 1605 1605 1606 1607 1607 1608 1609 1609 1610 1611 1612 1612 1613 1613
1555 1557 1559 1561 1563 1566 1568 1570 1573 1574 1576 1579 1581 1582 1584 1586 1588 1589 1591 1592 1594 1595 1596 1597 1598 1599 1600 1601 1602 1603 1604 1605 1605 1606 1607 1607 1608 1609 1610 1610 1611 1611
1551 1553 1555 1558 1560 1563 1565 1567 1569 1571 1573 1575 1577 1579 1580 1582 1584 1586 1587 1589 1590 1592 1593 1594 1595 1596 1597 1598 1600 1600 1601 1602 1603 1604 1604 1605 1605 1606 1607 1608 1608 1608
1547 1550 1552 1554 1557 1559 1562 1564 1566 1568 1570 1572 1574 1575 1577 1578 1580 1581 1583 1585 1587 1588 1589 1591 1592 1593 1594 1595 1596 1597 1598 1599 1600 1601 1602 1602 1603 1604 1604 1605 1605 1606
1544 1547 1549 1551 1554 1556 1558 1560 1562 1564 1566 1568 1570 1571 1573 1575 1576 1578 1579 1581 1582 1584 1585 1587 1588 1589 1590 1591 1593 1594 1595 1596 1597 1598 1599 1599 1600 1601 1601 1602 1602 1603
1541 1543 1546 1548 1550 1552 1555 1557 1559 1561 1562 1564 1566 1567 1569 1571 1572 1574 1575 1576 1578 1579 1580 1582 1583 1584 1585 1587 1589 1590 1591 1593 1594 1595 1596 1596 1597 1598 1598 1599 1599 1600
1538 1540 1542 1545 1546 1548 1551 1553 1555 1557 1558 1560 1562 1563 1565 1566 1568 1570 1571 1572 1573 1574 1575 1576 1577 1579 1581 1583 1585 1586 1588 1589 1590 1591 1592 1593 1594 1594 1595 1595 1596 1596
1534 1536 1539 1541 1543 1545 1547 1549 1551 1553 1554 1556 1558 1559 1561 1562 1564 1565 1566 1567 1568 1569 1570 1571 1572 1574 1576 1579 1581 1582 1584 1585 1586 1587 1588 1589 1590 1591 1591 1592 1592 1593
1531 1533 1535 1537 1539 1541 1543 1545 1547 1549 1550 1552 1554 1555 1557 1558 1559 1561 1562 1563 1564 1565 1566 1566 1567 1569 1571 1574 1576 1578 1579 1581 1582 1583 1584 1585 1586 1587 1588 1589 1589 1589
1528 1530 1531 1533 1535 1537 1539 1541 1543 1544 1546 1548 1550 1551 1553 1554 1555 1556 1558 1559 1560 1560 1561 1562 1563 1564 1566 1569 1571 1573 1575 1576 1577 1579 1580 1581 1582 1583 1584 1585 1585 1586
1525 1526 1528 1530 1532 1533 1535 1537 1538 1540 1542 1544 1545 1547 1548 1549 1551 1552 1553 1554 1555 1556 1557 1558 1559 1560 1561 1563 1565 1568 1570 1572 1573 1574 1575 1576 1578 1579 1580 1581 1581 1582
1522 1524 1525 1527 1528 1530 1532 1533 1534 1536 1538 1540 1541 1542 1544 1545 1546 1548 1548 1549 1551 1551 1552 1553 1554 1556 1557 1559 1561 1563 1565 1567 1568 1570 1571 1572 1573 1574 1575 1576 1577 1578
1520 1521 1522 1524 1525 1526 1528 1529 1531 1532 1534 1536 1537 1539 1540 1541 1541 1542 1543 1544 1545 1546 1546 1547 1549 1551 1552 1554 1556 1558 1560 1562 1563 1565 1566 1567 1569 1570 1571 1572 1573 1574
1518 1519 1520 1521 1522 1523 1524 1525 1527 1528 1530 1532 1533 1535 1536 1536 1537 1538 1539 1539 1540 1540 1540 1541 1543 1545 1547 1549 1552 1554 1556 1557 1558 1560 1562 1563 1564 1566 1567 1568 1569 1569
1515 1516 1516 1518 1519 1520 1521 1522 1523 1525 1526 1528 1529 1530 1531 1532 1534 1535 1535 1536 1536 1536 1536 1537 1538 1539 1541 1544 1546 1549 1551 1552 1554 1555 1557 1558 1560 1561 1562 1563 1564 1565
1513 1513 1514 1514 1515 1516 1518 1519 1520 1522 1523 1524 1525 1527 1528 1529 1530 1530 1530 1531 1532 1533 1533 1534 1534 1535 1536 1538 1541 1543 1545 1547 1549 1550 1551 1553 1555 1556 1557 1558 1559 1560
1509 1510 1511 1512 1513 1513 1515 1516 1517 1518 1519 1520 1522 1523 1524 1525 1526 1526 1526 1526 1527 1528 1529 1530 1531 1532 1532 1533 1535 1538 1539 1541 1543 1544 1546 1548 1550 1551 1552 1553 1554 1556
Wind_Speed
28 27 26 25 23 22 21 21 20 20 19 19 18 16 14 12 11 11 11 10 10 9 9 9 9 8 8 8 8 8 8 7 7 6 6 6 6 7 7 8 7 7
28 27 27 27 25 24 22 21 21 20 19 19 19 17 15 13 12 11 11 10 10 10 10 9 9 9 9 9 8 9 9 9 8 7 7 6 5 6 6 7 8 8
27 27 27 27 27 25 23 22 21 21 20 20 20 19 17 15 13 12 11 10 9 10 10 10 10 10 10 9 9 9 9 9 9 9 8 7 7 6 6 6 7 7
25 26 26 27 28 27 25 23 22 21 21 21 20 20 18 17 15 13 12 11 11 10 10 10 11 11 11 10 10 9 9 10 10 10 10 9 8 7 6 6 7 7
24 24 25 26 28 28 26 25 24 23 22 21 21 21 20 18 17 16 14 13 13 12 10 10 10 11 11 11 11 11 10 10 10 10 11 11 10 8 7 7 7 7
25 24 24 25 26 28 27 27 25 24 24 23 22 22 21 20 19 18 17 15 15 14 12 11 10 9 10 10 11 11 11 11 11 11 11 11 11 10 9 8 8 7
28 25 24 24 25 27 28 28 27 26 25 24 24 24 22 21 20 18 18 17 17 16 15 13 11 10 9 9 10 10 10 11 12 12 12 12 12 12 11 10 9 8
30 28 26 25 25 26 27 28 28 28 27 26 26 25 24 23 21 20 19 18 18 18 17 15 14 12 11 11 11 10 10 11 11 12 13 13 13 13 13 12 11 10
31 30 29 27 27 26 26 27 28 28 28 28 27 27 26 25 23 22 21 20 20 20 19 19 18 16 15 14 13 12 12 12 11 12 13 14 14 14 14 14 13 13
33 32 31 30 29 28 26 26 27 27 28 28 28 28 27 26 25 25 24 23 23 23 22 22 21 20 19 17 16 15 14 14 13 13 14 14 15 15 15 15 15 15
34 34 33 32 31 29 28 26 26 27 27 27 28 29 28 27 27 27 26 26 25 25 25 24 23 22 21 20 19 18 18 17 16 15 15 15 16 16 16 17 17 16
35 35 35 33 32 30 29 28 27 27 27 27 27 28 29 28 28 28 28 27 27 26 26 26 26 25 24 23 22 21 21 20 19 18 17 17 17 17 18 18 18 18
35 35 34 34 33 31 31 30 29 29 28 27 27 27 28 29 29 29 29 28 28 27 28 28 27 27 26 25 24 24 23 22 21 20 20 19 19 19 19 19 20 19
35 35 34 34 33 32 31 31 30 30 29 28 28 28 28 28 29 30 30 30 30 30 29 29 29 30 29 28 27 26 25 24 23 23 22 22 21 20 21 21 22 22
36 36 35 34 34 33 32 32 32 31 30 30 30 29 29 29 29 29 30 30 31 31 31 31 32 32 31 30 29 28 27 26 26 25 24 24 23 23 23 23 23 24
38 37 36 35 34 34 33 32 32 32 31 31 30 30 30 30 29 29 29 30 30 31 32 33 34 34 32 31 30 29 29 28 28 26 25 25 25 25 25 25 25 25
38 38 37 36 34 33 33 33 33 32 32 31 31 30 30 30 30 30 30 30 30 31 31 33 34 34 32 31 31 30 30 29 28 27 26 27 27 27 27 26 26 26
38 38 38 37 35 34 33 33 33 33 33 32 32 31 30 30 30 30 30 29 29 30 31 32 34 34 33 32 31 31 30 30 29 28 28 28 28 28 28 27 27 27
37 37 38 37 36 35 33 33 33 33 32 32 32 31 31 31 31 30 30 29 30 30 30 31 33 34 34 33 32 32 31 31 30 30 29 29 29 29 29 28 28 28
36 36 37 36 36 35 35 34 34 32 31 30 31 31 32 31 31 31 31 30 30 30 30 30 31 32 33 33 33 33 32 32 31 31 30 30 30 30 29 29 29 29
37 36 35 35 35 35 36 35 34 33 32 31 31 31 30 29 29 30 30 30 29 29 30 30 31 31 31 31 32 32 32 31 31 31 31 31 31 31 30 30 30 30
36 35 35 35 35 35 36 35 34 33 32 32 33 33 31 30 30 30 30 30 29 30 30 31 31 31 31 31 30 30 30 30 30 31 31 31 32 31 31 31 31 31
36 36 35 34 35 35 35 34 33 32 32 32 33 34 34 34 33 32 32 32 31 31 32 32 33 32 31 31 30 29 29 30 31 31 31 32 32 32 32 32 32 32
34 36 36 35 36 36 35 34 33 33 32 32 32 33 34 34 33 33 33 33 34 34 34 34 33 33 32 31 31 30 30 30 31 31 32 32 32 32 33 33 33 33
31 33 35 36 37 36 35 35 34 33 32 32 32 33 34 34 34 34 33 32 33 35 35 35 33 32 32 31 31 30 30 31 31 32 33 33 33 33 33 33 33 33
30 30 32 34 36 37 37 37 36 34 34 34 33 33 34 34 35 35 34 32 31 32 35 35 34 32 31 30 29 29 30 31 32 33 34 35 35 35 34 34 34 34
Wind_Direction
229 230 229 229 228 225 222 218 218 218 217 216 215 215 215 215 216 217 218 218 219 221 221 219 213 208 209 214 217 220 220 218 221 226 228 226 224 221 220 223 227 227
229 229 229 229 229 227 225 222 221 221 221 222 221 221 221 220 222 222 222 223 223 224 225 225 224 219 216 218 219 223 225 225 228 232 231 230 228 224 222 225 229 232
229 229 228 229 229 228 226 224 223 222 223 223 222 223 223 222 224 226 228 230 229 228 229 229 230 229 226 225 225 227 229 230 233 237 238 238 239 235 230 229 231 232
229 229 228 228 229 229 229 227 225 224 223 221 220 221 222 221 224 227 231 236 236 232 230 230 231 231 233 234 235 236 236 235 236 240 243 244 247 245 239 239 238 231
229 229 229 229 230 230 230 230 228 226 223 221 220 220 221 222 225 226 229 235 237 233 227 226 228 231 235 239 243 245 246 247 245 243 244 246 248 246 241 242 245 239
231 230 230 230 230 230 230 230 229 228 225 223 221 221 223 225 227 228 228 230 233 233 228 225 225 229 235 241 246 250 252 253 254 251 248 245 244 242 238 238 242 244
233 232 231 232 231 231 230 230 230 230 229 227 225 225 225 227 230 231 230 229 230 231 230 230 228 230 236 242 249 253 255 256 256 256 252 247 243 240 237 236 237 241
234 234 233 233 233 232 231 230 231 231 231 230 230 229 229 230 232 233 233 230 230 230 231 234 236 237 239 243 248 254 257 259 258 257 255 251 246 242 240 240 238 238
235 235 235 235 235 235 233 231 231 231 232 233 234 234 234 234 234 234 235 233 233 234 235 238 241 243 245 248 251 255 259 262 262 260 258 255 252 248 245 244 243 241
236 236 237 236 237 237 235 234 232 232 232 233 235 237 238 238 238 238 238 238 239 239 240 242 243 245 248 250 253 256 259 263 264 264 262 259 257 255 252 248 246 244
236 236 238 238 238 238 237 237 236 235 234 233 235 237 239 241 241 242 243 242 243 243 243 244 244 245 248 251 255 258 260 263 264 265 265 263 260 258 256 254 250 247
237 237 238 239 239 239 239 239 239 239 238 236 236 237 239 241 242 244 246 247 247 247 247 246 246 247 249 250 255 258 260 262 264 263 263 263 261 258 256 255 254 252
239 239 239 240 241 241 241 241 241 241 241 241 240 240 241 241 242 243 246 248 249 250 250 249 249 250 250 251 254 257 259 262 263 263 262 260 259 257 255 253 253 253
241 241 241 242 243 243 243 243 243 244 244 243 243 243 243 244 244 244 245 246 248 249 250 251 251 251 252 252 253 255 258 260 262 263 262 260 258 256 254 251 249 250
243 242 243 243 244 244 244 244 245 245 245 245 245 245 245 245 245 245 245 245 246 247 248 250 251 252 252 252 253 254 256 259 261 261 261 260 258 255 253 250 247 247
245 244 244 244 245 245 245 245 245 246 246 246 246 246 246 246 246 246 246 246 245 245 246 248 250 251 251 252 253 255 256 258 259 259 259 258 256 255 253 250 247 246
246 246 245 246 246 246 247 246 246 247 247 247 247 248 248 248 248 248 247 247 247 246 246 247 248 250 251 252 253 254 255 256 257 257 256 256 255 254 252 250 248 246
246 246 246 247 247 247 248 248 248 248 248 249 249 249 249 250 250 250 249 249 249 249 247 247 248 249 249 250 251 251 252 253 253 254 254 253 253 252 251 250 249 247
246 246 248 248 249 249 249 249 249 249 249 250 250 250 251 251 252 252 252 251 251 251 250 249 250 249 248 248 248 248 248 249 249 250 250 251 251 250 250 250 249 248
246 247 248 250 250 250 250 249 249 249 250 250 250 251 252 252 253 253 254 253 253 254 254 254 253 251 249 247 246 246 246 245 246 247 248 248 248 248 248 248 248 248
246 248 249 251 251 250 250 250 250 250 250 249 249 250 250 250 251 251 252 252 252 254 255 255 254 253 250 247 245 243 243 243 244 245 246 247 247 246 246 247 247 247
247 249 250 251 251 250 250 251 251 252 251 250 250 250 250 249 247 246 245 244 244 246 250 252 251 251 251 248 245 242 242 243 242 243 244 246 246 246 246 246 246 246
247 249 251 251 251 250 251 251 252 252 252 252 251 250 250 250 249 248 247 245 242 241 241 243 245 246 247 247 245 244 244 245 243 242 243 244 245 246 246 246 246 246
243 246 248 250 250 251 252 252 252 252 252 251 251 251 250 250 250 251 252 252 250 247 243 241 241 242 243 243 243 243 244 245 244 243 243 243 243 244 245 245 246 246
241 244 245 247 248 250 251 252 253 253 253 253 253 253 253 252 250 249 249 250 251 252 250 247 243 241 241 240 239 240 242 243 244 245 244 242 242 243 244 244 245 245
238 242 244 246 247 249 250 252 253 254 254 254 254 254 255 254 252 250 249 248 247 248 251 251 248 244 242 239 236 236 238 240 242 243 242 240 240 241 242 243 244 245